Time,TemperatureF,DewpointF,PressureIn,WindDirection,WindDirectionDegrees,WindSpeedMPH,WindSpeedGustMPH,Humidity,HourlyPrecipIn,Conditions,Clouds,dailyrainin,SoftwareType,DateUTC
2013-04-23 00:01:00,13.0,10.0,30.17,NNE,32,5.0,10.0,87,0.00,,,0.09,,2013-04-23 06:01:00,
2013-04-23 00:12:00,13.0,10.0,30.17,NNE,32,5.0,10.0,87,0.00,,,0.09,,2013-04-23 06:12:00,
2013-04-23 00:21:00,13.0,10.0,30.17,NE,35,5.0,9.0,87,0.00,,,0.09,,2013-04-23 06:21:00,
2013-04-23 00:32:00,13.0,10.0,30.19,NE,49,6.0,10.0,87,0.00,,,0.09,,2013-04-23 06:32:00,
2013-04-23 00:42:00,13.0,10.0,30.19,NE,49,6.0,10.0,87,0.00,,,0.09,,2013-04-23 06:42:00,
2013-04-23 00:52:00,13.0,10.0,30.18,NE,44,5.0,9.0,87,0.00,,,0.09,,2013-04-23 06:52:00,
2013-04-23 01:02:00,13.0,10.0,30.17,NE,46,5.0,7.0,87,0.00,,,0.09,,2013-04-23 07:02:00,
2013-04-23 01:11:00,13.0,10.0,30.17,NE,46,5.0,7.0,87,0.00,,,0.09,,2013-04-23 07:11:00,
2013-04-23 01:21:00,13.0,10.0,30.17,North,11,8.0,11.0,87,0.00,,,0.09,,2013-04-23 07:21:00,
2013-04-23 01:32:00,13.0,10.0,30.16,North,10,10.0,15.0,87,0.00,,,0.09,,2013-04-23 07:32:00,
2013-04-23 01:42:00,13.0,10.0,30.16,North,10,10.0,15.0,87,0.00,,,0.09,,2013-04-23 07:42:00,
2013-04-23 01:52:00,13.0,10.0,30.16,NNE,22,9.0,13.0,87,0.00,,,0.09,,2013-04-23 07:52:00,
2013-04-23 02:02:00,13.0,10.0,30.15,NNE,29,9.0,13.0,87,0.00,,,0.09,,2013-04-23 08:02:00,
2013-04-23 02:11:00,13.0,10.0,30.15,NNE,29,9.0,13.0,87,0.00,,,0.09,,2013-04-23 08:11:00,
2013-04-23 02:21:00,13.0,10.0,30.15,NNE,22,10.0,14.0,87,0.00,,,0.09,,2013-04-23 08:21:00,
2013-04-23 02:31:00,13.0,10.0,30.14,NE,37,8.0,15.0,87,0.00,,,0.09,,2013-04-23 08:31:00,
2013-04-23 02:42:00,13.0,10.0,30.14,NE,37,8.0,15.0,87,0.00,,,0.09,,2013-04-23 08:42:00,
2013-04-23 02:52:00,12.0,9.0,30.13,NNE,26,12.0,14.0,87,0.00,,,0.09,,2013-04-23 08:52:00,
2013-04-23 03:01:00,12.0,9.0,30.14,NNE,25,10.0,14.0,87,0.00,,,0.09,,2013-04-23 09:01:00,
2013-04-23 03:11:00,12.0,9.0,30.14,NNE,25,10.0,14.0,87,0.00,,,0.09,,2013-04-23 09:11:00,
2013-04-23 03:21:00,11.0,8.0,30.12,NNE,24,10.0,14.0,87,0.00,,,0.09,,2013-04-23 09:21:00,
2013-04-23 03:32:00,11.0,8.0,30.14,NE,37,6.0,12.0,87,0.00,,,0.09,,2013-04-23 09:32:00,
2013-04-23 03:42:00,11.0,8.0,30.14,NE,37,6.0,12.0,87,0.00,,,0.09,,2013-04-23 09:42:00,
2013-04-23 03:53:00,11.0,8.0,30.14,NNE,24,7.0,11.0,87,0.00,,,0.09,,2013-04-23 09:53:00,
2013-04-23 04:02:00,11.0,8.0,30.14,NNE,26,6.0,10.0,87,0.00,,,0.09,,2013-04-23 10:02:00,
2013-04-23 04:13:00,11.0,8.0,30.14,NNE,26,6.0,10.0,87,0.00,,,0.09,,2013-04-23 10:13:00,
2013-04-23 04:22:00,11.0,8.0,30.15,NE,39,3.0,6.0,87,0.00,,,0.09,,2013-04-23 10:22:00,
2013-04-23 04:32:00,11.0,8.0,30.14,NE,51,3.0,4.0,87,0.00,,,0.09,,2013-04-23 10:32:00,
2013-04-23 04:42:00,11.0,8.0,30.14,NE,51,3.0,4.0,87,0.00,,,0.09,,2013-04-23 10:42:00,
2013-04-23 04:52:00,11.0,8.0,30.14,NE,51,2.0,4.0,87,0.00,,,0.09,,2013-04-23 10:52:00,
2013-04-23 05:02:00,11.0,8.0,30.12,NE,51,1.0,2.0,87,0.00,,,0.09,,2013-04-23 11:02:00,
2013-04-23 05:12:00,10.0,7.0,30.14,NE,51,0.0,2.0,86,0.00,,,0.09,,2013-04-23 11:12:00,
2013-04-23 05:21:00,10.0,7.0,30.14,NE,51,0.0,2.0,86,0.00,,,0.09,,2013-04-23 11:21:00,
2013-04-23 05:32:00,10.0,7.0,30.13,NE,51,3.0,5.0,87,0.00,,,0.09,,2013-04-23 11:32:00,
2013-04-23 05:42:00,10.0,7.0,30.13,NE,51,0.0,3.0,87,0.00,,,0.09,,2013-04-23 11:42:00,
2013-04-23 05:53:00,10.0,7.0,30.13,NE,51,0.0,3.0,87,0.00,,,0.09,,2013-04-23 11:53:00,
2013-04-23 06:02:00,10.0,7.0,30.13,NE,51,3.0,4.0,87,0.00,,,0.09,,2013-04-23 12:02:00,
2013-04-23 06:12:00,10.0,7.0,30.13,NE,51,3.0,4.0,87,0.00,,,0.09,,2013-04-23 12:12:00,
2013-04-23 06:22:00,10.0,7.0,30.13,NE,51,2.0,4.0,87,0.00,,,0.09,,2013-04-23 12:22:00,
2013-04-23 06:32:00,10.0,7.0,30.14,NE,51,2.0,4.0,86,0.00,,,0.09,,2013-04-23 12:32:00,
2013-04-23 06:41:00,10.0,7.0,30.14,NE,51,2.0,4.0,86,0.00,,,0.09,,2013-04-23 12:41:00,
2013-04-23 06:52:00,10.0,7.0,30.14,NE,51,2.0,4.0,86,0.00,,,0.09,,2013-04-23 12:52:00,
2013-04-23 07:01:00,10.0,7.0,30.14,NE,51,0.0,2.0,86,0.00,,,0.09,,2013-04-23 13:01:00,
2013-04-23 07:11:00,10.0,7.0,30.14,NE,51,0.0,2.0,86,0.00,,,0.09,,2013-04-23 13:11:00,
2013-04-23 07:21:00,10.0,7.0,30.15,NE,51,0.0,0.0,86,0.00,,,0.09,,2013-04-23 13:21:00,
2013-04-23 07:32:00,10.0,7.0,30.15,NE,51,0.0,0.0,86,0.00,,,0.09,,2013-04-23 13:32:00,
2013-04-23 07:41:00,10.0,7.0,30.15,NE,51,0.0,0.0,86,0.00,,,0.09,,2013-04-23 13:41:00,
2013-04-23 07:52:00,10.0,7.0,30.15,NE,51,2.0,4.0,86,0.00,,,0.09,,2013-04-23 13:52:00,
2013-04-23 08:01:00,11.0,8.0,30.16,NE,51,0.0,0.0,86,0.00,,,0.09,,2013-04-23 14:01:00,
2013-04-23 08:11:00,11.0,8.0,30.16,NE,51,0.0,0.0,86,0.00,,,0.09,,2013-04-23 14:11:00,
2013-04-23 08:22:00,12.0,9.0,30.16,NE,51,0.0,0.0,86,0.00,,,0.09,,2013-04-23 14:22:00,
2013-04-23 08:32:00,13.0,10.0,30.16,NE,51,0.0,0.0,86,0.00,,,0.08,,2013-04-23 14:32:00,
2013-04-23 08:42:00,13.0,10.0,30.16,NE,51,0.0,0.0,86,0.00,,,0.08,,2013-04-23 14:42:00,
2013-04-23 08:52:00,14.0,10.0,30.16,NE,50,0.0,0.0,84,0.00,,,0.08,,2013-04-23 14:52:00,
2013-04-23 09:01:00,14.0,10.0,30.16,NE,50,0.0,0.0,84,0.00,,,0.08,,2013-04-23 15:01:00,
2013-04-23 09:12:00,15.0,11.0,30.17,NE,49,0.0,0.0,85,0.00,,,0.08,,2013-04-23 15:12:00,
2013-04-23 09:21:00,16.0,11.0,30.16,NE,50,0.0,0.0,81,0.00,,,0.08,,2013-04-23 15:21:00,
2013-04-23 09:32:00,14.0,10.0,30.16,NE,50,0.0,0.0,82,0.02,,,0.10,,2013-04-23 15:32:00,
2013-04-23 09:42:00,14.0,10.0,30.16,NE,50,0.0,0.0,82,0.02,,,0.10,,2013-04-23 15:42:00,
2013-04-23 09:53:00,15.0,11.0,30.17,NE,49,0.0,0.0,83,0.03,,,0.11,,2013-04-23 15:53:00,
2013-04-23 10:02:00,16.0,11.0,30.17,NE,50,0.0,0.0,82,0.04,,,0.12,,2013-04-23 16:02:00,
2013-04-23 10:12:00,16.0,11.0,30.17,NE,50,0.0,0.0,82,0.04,,,0.12,,2013-04-23 16:12:00,
2013-04-23 10:23:00,16.0,11.0,30.17,NE,50,0.0,0.0,81,0.05,,,0.13,,2013-04-23 16:23:00,
2013-04-23 10:34:00,16.0,11.0,30.16,NE,50,0.0,0.0,80,0.04,,,0.14,,2013-04-23 16:34:00,
2013-04-23 10:42:00,16.0,11.0,30.16,NE,50,0.0,0.0,80,0.04,,,0.14,,2013-04-23 16:42:00,
2013-04-23 10:53:00,16.0,11.0,30.18,NE,49,0.0,0.0,81,0.03,,,0.14,,2013-04-23 16:53:00,
2013-04-23 11:02:00,17.0,12.0,30.16,NE,49,0.0,0.0,81,0.02,,,0.14,,2013-04-23 17:02:00,
2013-04-23 11:11:00,17.0,12.0,30.16,NE,46,0.0,0.0,80,0.02,,,0.15,,2013-04-23 17:11:00,
2013-04-23 11:22:00,17.0,12.0,30.16,NE,46,0.0,0.0,80,0.02,,,0.15,,2013-04-23 17:22:00,
2013-04-23 11:32:00,17.0,12.0,30.16,NE,52,0.0,0.0,80,0.01,,,0.13,,2013-04-23 17:32:00,
2013-04-23 11:42:00,17.0,12.0,30.16,NE,52,0.0,0.0,80,0.01,,,0.13,,2013-04-23 17:42:00,
2013-04-23 11:53:00,18.0,13.0,30.16,NE,52,0.0,0.0,80,0.02,,,0.14,,2013-04-23 17:53:00,
2013-04-23 12:02:00,18.0,13.0,30.15,NE,55,0.0,0.0,79,0.02,,,0.14,,2013-04-23 18:02:00,
2013-04-23 12:12:00,18.0,13.0,30.15,NE,55,0.0,0.0,79,0.02,,,0.14,,2013-04-23 18:12:00,
2013-04-23 12:22:00,19.0,14.0,30.15,NE,55,0.0,0.0,79,0.01,,,0.14,,2013-04-23 18:22:00,
2013-04-23 12:32:00,19.0,13.0,30.15,ENE,63,0.0,0.0,77,0.01,,,0.12,,2013-04-23 18:32:00,
2013-04-23 12:42:00,19.0,13.0,30.15,ENE,63,0.0,0.0,77,0.01,,,0.12,,2013-04-23 18:42:00,
2013-04-23 12:52:00,20.0,14.0,30.15,ENE,63,0.0,0.0,78,0.01,,,0.12,,2013-04-23 18:52:00,
2013-04-23 13:02:00,20.0,14.0,30.14,ENE,63,0.0,0.0,77,0.00,,,0.12,,2013-04-23 19:02:00,
2013-04-23 13:11:00,20.0,14.0,30.14,ENE,63,0.0,0.0,77,0.00,,,0.12,,2013-04-23 19:11:00,
2013-04-23 13:21:00,21.0,15.0,30.12,ENE,63,0.0,0.0,77,0.00,,,0.12,,2013-04-23 19:21:00,
2013-04-23 13:32:00,21.0,15.0,30.11,ENE,63,0.0,0.0,76,0.00,,,0.09,,2013-04-23 19:32:00,
2013-04-23 13:42:00,21.0,15.0,30.11,ENE,63,0.0,0.0,76,0.00,,,0.09,,2013-04-23 19:42:00,
2013-04-23 13:52:00,21.0,14.0,30.11,ENE,63,0.0,0.0,75,0.00,,,0.09,,2013-04-23 19:52:00,
2013-04-23 14:01:00,20.0,14.0,30.12,NE,46,0.0,0.0,76,0.00,,,0.09,,2013-04-23 20:01:00,
2013-04-23 14:11:00,20.0,14.0,30.12,NE,46,0.0,0.0,76,0.00,,,0.09,,2013-04-23 20:11:00,
2013-04-23 14:21:00,20.0,14.0,30.10,NE,55,0.0,0.0,78,0.00,,,0.09,,2013-04-23 20:21:00,
2013-04-23 14:31:00,21.0,15.0,30.11,NE,48,0.0,0.0,78,0.00,,,0.08,,2013-04-23 20:31:00,
2013-04-23 14:42:00,21.0,15.0,30.11,NE,48,0.0,0.0,78,0.00,,,0.08,,2013-04-23 20:42:00,
2013-04-23 14:52:00,20.0,14.0,30.12,NE,45,0.0,0.0,78,0.00,,,0.08,,2013-04-23 20:52:00,
2013-04-23 15:01:00,20.0,14.0,30.12,ENE,57,0.0,0.0,78,0.00,,,0.08,,2013-04-23 21:01:00,
2013-04-23 15:12:00,20.0,14.0,30.12,ENE,57,0.0,0.0,78,0.00,,,0.08,,2013-04-23 21:12:00,
2013-04-23 15:21:00,21.0,15.0,30.10,NE,51,0.0,0.0,76,0.00,,,0.08,,2013-04-23 21:21:00,
2013-04-23 15:33:00,21.0,14.0,30.12,NE,37,0.0,0.0,75,0.00,,,0.08,,2013-04-23 21:33:00,
2013-04-23 15:43:00,21.0,14.0,30.12,NE,37,0.0,0.0,75,0.00,,,0.08,,2013-04-23 21:43:00,
2013-04-23 15:52:00,20.0,13.0,30.12,NE,44,0.0,0.0,75,0.00,,,0.08,,2013-04-23 21:52:00,
2013-04-23 16:03:00,20.0,13.0,30.11,NE,46,0.0,0.0,75,0.00,,,0.08,,2013-04-23 22:03:00,
2013-04-23 16:12:00,20.0,13.0,30.11,NE,46,0.0,0.0,75,0.00,,,0.08,,2013-04-23 22:12:00,
2013-04-23 16:22:00,22.0,15.0,30.10,NE,46,0.0,0.0,74,0.00,,,0.08,,2013-04-23 22:22:00,
2013-04-23 16:33:00,23.0,17.0,30.11,NE,45,0.0,0.0,76,0.00,,,0.08,,2013-04-23 22:33:00,
2013-04-23 16:42:00,23.0,17.0,30.11,NE,45,0.0,0.0,76,0.00,,,0.08,,2013-04-23 22:42:00,
2013-04-23 16:52:00,23.0,16.0,30.10,NE,46,0.0,0.0,75,0.00,,,0.08,,2013-04-23 22:52:00,
2013-04-23 17:02:00,24.0,16.0,30.09,NE,47,0.0,0.0,71,0.00,,,0.08,,2013-04-23 23:02:00,
2013-04-23 17:12:00,24.0,16.0,30.09,NE,47,0.0,0.0,71,0.00,,,0.08,,2013-04-23 23:12:00,
2013-04-23 17:22:00,23.0,16.0,30.10,SSE,167,0.0,0.0,73,0.00,,,0.08,,2013-04-23 23:22:00,
2013-04-23 17:32:00,25.0,15.0,30.09,North,355,0.0,0.0,65,0.00,,,0.08,,2013-04-23 23:32:00,
2013-04-23 17:42:00,27.0,14.0,30.09,WSW,257,0.0,0.0,58,0.00,,,0.08,,2013-04-23 23:42:00,
2013-04-23 17:52:00,27.0,14.0,30.09,WSW,257,0.0,0.0,58,0.00,,,0.08,,2013-04-23 23:52:00,
2013-04-23 18:01:00,27.0,13.0,30.09,WSW,255,0.0,0.0,56,0.00,,,0.08,,2013-04-24 00:01:00,
2013-04-23 18:11:00,27.0,13.0,30.09,WSW,255,0.0,0.0,56,0.00,,,0.08,,2013-04-24 00:11:00,
2013-04-23 18:21:00,27.0,12.0,30.10,West,271,0.0,0.0,52,0.00,,,0.08,,2013-04-24 00:21:00,
2013-04-23 18:32:00,27.0,11.0,30.11,NNW,336,0.0,0.0,51,0.00,,,0.08,,2013-04-24 00:32:00,
2013-04-23 18:41:00,27.0,11.0,30.11,NNW,336,0.0,0.0,51,0.00,,,0.08,,2013-04-24 00:41:00,
2013-04-23 18:52:00,26.0,10.0,30.11,WNW,298,0.0,0.0,50,0.00,,,0.08,,2013-04-24 00:52:00,
2013-04-23 19:01:00,26.0,12.0,30.11,South,176,0.0,0.0,54,0.00,,,0.08,,2013-04-24 01:01:00,
2013-04-23 19:11:00,26.0,12.0,30.11,South,176,0.0,0.0,54,0.00,,,0.08,,2013-04-24 01:11:00,
2013-04-23 19:21:00,26.0,10.0,30.11,West,265,0.0,0.0,51,0.00,,,0.08,,2013-04-24 01:21:00,
2013-04-23 19:32:00,26.0,9.0,30.11,NW,310,0.0,0.0,47,0.00,,,0.08,,2013-04-24 01:32:00,
2013-04-23 19:42:00,26.0,9.0,30.11,NW,310,0.0,0.0,47,0.00,,,0.08,,2013-04-24 01:42:00,
2013-04-23 19:52:00,26.0,8.0,30.12,WSW,252,0.0,0.0,46,0.00,,,0.08,,2013-04-24 01:52:00,
2013-04-23 20:02:00,25.0,9.0,30.10,West,279,0.0,0.0,49,0.00,,,0.08,,2013-04-24 02:02:00,
2013-04-23 20:16:00,24.0,8.0,30.12,NW,309,0.0,0.0,50,0.00,,,0.08,,2013-04-24 02:16:00,
2013-04-23 20:28:00,24.0,8.0,30.12,NW,309,0.0,0.0,50,0.00,,,0.08,,2013-04-24 02:28:00,
2013-04-23 20:37:00,24.0,8.0,30.13,WSW,241,0.0,1.0,50,0.00,,,0.08,,2013-04-24 02:37:00,
2013-04-23 20:46:00,24.0,8.0,30.13,WSW,241,0.0,1.0,50,0.00,,,0.08,,2013-04-24 02:46:00,
2013-04-23 20:59:00,24.0,8.0,30.13,South,175,0.0,0.0,50,0.00,,,0.08,,2013-04-24 02:59:00,
2013-04-23 21:15:00,23.0,9.0,30.13,South,173,0.0,0.0,54,0.00,,,0.08,,2013-04-24 03:15:00,
2013-04-23 21:28:00,22.0,7.0,30.14,SSW,199,0.0,0.0,52,0.00,,,0.08,,2013-04-24 03:28:00,
2013-04-23 21:38:00,22.0,8.0,30.14,South,186,0.0,0.0,54,0.00,,,0.08,,2013-04-24 03:38:00,
2013-04-23 21:48:00,22.0,8.0,30.14,South,186,0.0,0.0,54,0.00,,,0.08,,2013-04-24 03:48:00,
2013-04-23 22:03:00,21.0,8.0,30.12,SW,214,0.0,0.0,57,0.00,,,0.08,,2013-04-24 04:03:00,
2013-04-23 22:12:00,21.0,8.0,30.12,SW,214,0.0,0.0,57,0.00,,,0.08,,2013-04-24 04:12:00,
2013-04-23 22:23:00,20.0,9.0,30.14,SSW,207,0.0,0.0,61,0.00,,,0.08,,2013-04-24 04:23:00,
2013-04-23 22:33:00,20.0,8.0,30.14,SSW,193,0.0,0.0,59,0.00,,,0.08,,2013-04-24 04:33:00,
2013-04-23 22:43:00,20.0,8.0,30.14,SSW,193,0.0,0.0,59,0.00,,,0.08,,2013-04-24 04:43:00,
2013-04-23 22:53:00,19.0,8.0,30.14,South,183,0.0,0.0,62,0.00,,,0.08,,2013-04-24 04:53:00,
2013-04-23 23:02:00,19.0,9.0,30.15,SSW,213,0.0,0.0,64,0.00,,,0.08,,2013-04-24 05:02:00,
2013-04-23 23:12:00,19.0,9.0,30.15,SSW,213,0.0,0.0,64,0.00,,,0.08,,2013-04-24 05:12:00,
2013-04-23 23:22:00,19.0,9.0,30.13,SSW,212,0.0,0.0,64,0.00,,,0.08,,2013-04-24 05:22:00,
2013-04-23 23:32:00,19.0,8.0,30.17,SW,223,0.0,0.0,62,0.00,,,0.08,,2013-04-24 05:32:00,
2013-04-23 23:42:00,19.0,8.0,30.17,SW,223,0.0,0.0,62,0.00,,,0.08,,2013-04-24 05:42:00,
2013-04-23 23:52:00,18.0,7.0,30.15,SW,236,1.0,3.0,61,0.00,,,0.08,,2013-04-24 05:52:00,